Location: Gro� Glienicke
(52.4675°N, 13.1079°E)
Time: 18:54:44
(UTC+00:00)

Helios 1A - Pass Details

Date: 06 July 2020
Orbit: 587 x 600 km, 98.2° (Epoch: 07 August)

Event Time Altitude Azimuth Distance (km) Brightness Sun altitude
Exits shadow 23:34:11 23° 210° (SSW) 1,261 4.1 -14.8°
Maximum altitude 23:36:11 37° 262° (W) 917 3.8 -14.8°
Drops below altitude 10° 23:40:05 10° 331° (NNW) 1,927 6.4 -14.7°
Sets 23:42:23 0° 340° (NNW) 2,835 7.6 -14.7°
